| time (UTC) | temp F | wind direction | speed MPH | gust MPH | rain 1hr in | rain 24hr in | rain mn in | humidity % | barometer mb |
| 20260902060518 | 62 | 225 | 2.0 | 12.0 | 0.00 | 0.03 | 0.03 | 77 | 1018.9 |
| 20260902055517 | 62 | 225 | 2.0 | 10.0 | 0.00 | 0.03 | 0.03 | 76 | 1019.0 |
| 20260902054517 | 61 | 225 | 4.0 | 13.0 | 0.00 | 0.03 | 0.03 | 77 | 1019.0 |
| 20260902053540 | 61 | 225 | 3.0 | 12.0 | 0.00 | 0.03 | 0.03 | 78 | 1018.9 |
| 20260902052519 | 61 | 225 | 3.0 | 12.0 | 0.00 | 0.03 | 0.03 | 78 | 1018.8 |
| 20260902051519 | 61 | 225 | 3.0 | 12.0 | 0.00 | 0.03 | 0.03 | 79 | 1018.8 |
| 20260902050519 | 61 | 225 | 4.0 | 14.0 | 0.00 | 0.03 | 0.03 | 82 | 1018.7 |
| 20260902045519 | 61 | 225 | 3.0 | 11.0 | 0.00 | 0.03 | 0.03 | 85 | 1018.9 |
| 20260902044519 | 59 | 225 | 4.0 | 13.0 | 0.00 | 0.03 | 0.03 | 91 | 1019.0 |
| 20260902043519 | 58 | 225 | 4.0 | 11.0 | 0.00 | 0.03 | 0.03 | 93 | 1019.0 |
| 20260902042518 | 57 | 225 | 3.0 | 9.0 | 0.00 | 0.03 | 0.03 | 93 | 1019.1 |
| 20260902041517 | 56 | 225 | 3.0 | 12.0 | 0.00 | 0.03 | 0.03 | 93 | 1019.1 |
| 20260902040519 | 56 | 225 | 3.0 | 14.0 | 0.01 | 0.03 | 0.03 | 93 | 1019.1 |
| 20260902035519 | 56 | 225 | 3.0 | 13.0 | 0.02 | 0.03 | 0.03 | 93 | 1019.2 |
| 20260902034519 | 57 | 248 | 2.0 | 9.0 | 0.02 | 0.03 | 0.03 | 93 | 1019.3 |
| 20260902033519 | 57 | 225 | 1.0 | 5.0 | 0.03 | 0.03 | 0.03 | 93 | 1019.3 |
| 20260902032518 | 57 | 248 | 1.0 | 8.0 | 0.03 | 0.03 | 0.03 | 93 | 1019.4 |
| 20260902031519 | 57 | 248 | 1.0 | 5.0 | 0.03 | 0.03 | 0.03 | 93 | 1019.5 |
| 20260902030559 | 57 | 248 | 1.0 | 4.0 | 0.02 | 0.02 | 0.02 | 93 | 1019.3 |
| 20260902025519 | 57 | 225 | 2.0 | 10.0 | 0.02 | 0.02 | 0.02 | 92 | 1019.4 |
| 20260902024518 | 57 | 225 | 2.0 | 8.0 | 0.01 | 0.01 | 0.01 | 91 | 1019.4 |
| 20260902023519 | 58 | 248 | 1.0 | 9.0 | 0.00 | 0.00 | 0.00 | 89 | 1019.3 |
| 20260902022519 | 58 | 270 | 1.0 | 7.0 | 0.00 | 0.00 | 0.00 | 88 | 1019.5 |
| 20260902021519 | 58 | 225 | 1.0 | 10.0 | 0.00 | 0.00 | 0.00 | 88 | 1019.3 |
| 20260902020539 | 57 | 270 | 3.0 | 10.0 | 0.00 | 0.00 | 0.00 | 88 | 1019.4 |
| 20260902015519 | 58 | 248 | 1.0 | 5.0 | 0.00 | 0.00 | 0.00 | 86 | 1019.3 |
| 20260902014518 | 57 | 248 | 2.0 | 12.0 | 0.00 | 0.00 | 0.00 | 87 | 1019.4 |
| 20260902013518 | 57 | 248 | 1.0 | 7.0 | 0.00 | 0.00 | 0.00 | 87 | 1019.4 |
| 20260902012518 | 57 | 270 | 1.0 | 8.0 | 0.00 | 0.00 | 0.00 | 86 | 1019.4 |
| 20260902011519 | 56 | 270 | 1.0 | 7.0 | 0.00 | 0.00 | 0.00 | 86 | 1019.3 |
| 20260902010519 | 56 | 248 | 2.0 | 11.0 | 0.00 | 0.00 | 0.00 | 85 | 1019.3 |
| 20260902005518 | 56 | 270 | 1.0 | 7.0 | 0.00 | 0.00 | 0.00 | 88 | 1019.2 |
| 20260902004538 | 55 | 0.0 | 3.0 | 0.00 | 0.00 | 0.00 | 88 | 1019.2 | |
| 20260902003519 | 55 | 248 | 1.0 | 6.0 | 0.00 | 0.00 | 0.00 | 87 | 1019.2 |
| 20260902002518 | 55 | 0.0 | 4.0 | 0.00 | 0.00 | 0.00 | 87 | 1019.3 | |
| 20260902001519 | 55 | 248 | 1.0 | 7.0 | 0.00 | 0.00 | 0.00 | 85 | 1019.2 |
| 20260902000519 | 55 | 248 | 1.0 | 6.0 | 0.00 | 0.00 | 0.00 | 86 | 1019.1 |
| 20260901235518 | 54 | 0.0 | 5.0 | 0.00 | 0.00 | 0.00 | 87 | 1019.0 | |
| 20260901234518 | 54 | 248 | 1.0 | 4.0 | 0.00 | 0.00 | 0.00 | 86 | 1019.0 |
| 20260901233518 | 54 | 0.0 | 3.0 | 0.00 | 0.00 | 0.00 | 85 | 1018.9 | |
| 20260901232518 | 54 | 0.0 | 3.0 | 0.00 | 0.00 | 0.00 | 84 | 1018.9 | |
| 20260901231518 | 54 | 0.0 | 4.0 | 0.00 | 0.01 | 0.00 | 84 | 1019.1 | |
| 20260901230538 | 54 | 248 | 1.0 | 8.0 | 0.00 | 0.01 | 0.00 | 83 | 1018.9 |
| 20260901225518 | 54 | 270 | 1.0 | 7.0 | 0.00 | 0.01 | 0.00 | 82 | 1018.9 |
| 20260901224518 | 54 | 0.0 | 4.0 | 0.00 | 0.01 | 0.00 | 83 | 1018.8 | |
| 20260901223518 | 54 | 270 | 1.0 | 6.0 | 0.00 | 0.01 | 0.00 | 82 | 1018.8 |
| 20260901222518 | 54 | 0.0 | 4.0 | 0.00 | 0.01 | 0.00 | 82 | 1018.8 | |
| 20260901221518 | 54 | 0.0 | 2.0 | 0.00 | 0.01 | 0.00 | 82 | 1018.8 | |
| 20260901220518 | 54 | 0.0 | 2.0 | 0.00 | 0.01 | 0.00 | 82 | 1018.7 | |
| 20260901215518 | 54 | 270 | 1.0 | 12.0 | 0.00 | 0.01 | 0.00 | 81 | 1018.8 |
| 20260901214518 | 54 | 270 | 1.0 | 5.0 | 0.00 | 0.01 | 0.00 | 80 | 1019.0 |
| 20260901213518 | 54 | 0.0 | 3.0 | 0.00 | 0.01 | 0.00 | 80 | 1018.8 | |
| 20260901212518 | 54 | 0.0 | 3.0 | 0.00 | 0.01 | 0.00 | 80 | 1018.8 | |
| 20260901211518 | 54 | 0.0 | 1.0 | 0.00 | 0.01 | 0.00 | 80 | 1018.7 | |
| 20260901210519 | 54 | 0.0 | 3.0 | 0.00 | 0.01 | 0.00 | 80 | 1018.8 | |
| 20260901205518 | 54 | 0.0 | 3.0 | 0.00 | 0.01 | 0.00 | 80 | 1018.7 | |
| 20260901204518 | 54 | 0.0 | 3.0 | 0.00 | 0.01 | 0.00 | 81 | 1018.9 | |
| 20260901203538 | 54 | 0.0 | 0.0 | 0.00 | 0.01 | 0.00 | 80 | 1018.9 | |
| 20260901202518 | 54 | 248 | 1.0 | 7.0 | 0.00 | 0.01 | 0.00 | 80 | 1018.7 |
| 20260901201518 | 54 | 0.0 | 5.0 | 0.00 | 0.01 | 0.00 | 80 | 1018.9 | |
| 20260901200518 | 54 | 0.0 | 3.0 | 0.00 | 0.01 | 0.00 | 79 | 1018.8 | |
| 20260901195518 | 54 | 270 | 1.0 | 9.0 | 0.00 | 0.01 | 0.00 | 79 | 1018.9 |
| 20260901194518 | 54 | 0.0 | 4.0 | 0.00 | 0.01 | 0.00 | 78 | 1019.0 | |
| 20260901193538 | 54 | 248 | 1.0 | 8.0 | 0.00 | 0.01 | 0.00 | 78 | 1019.1 |
| 20260901192518 | 54 | 0.0 | 2.0 | 0.00 | 0.01 | 0.00 | 78 | 1019.0 | |
| 20260901191518 | 55 | 248 | 1.0 | 8.0 | 0.00 | 0.01 | 0.00 | 77 | 1019.1 |
| 20260901190518 | 54 | 0.0 | 6.0 | 0.00 | 0.01 | 0.00 | 77 | 1019.3 | |
| 20260901185518 | 54 | 0.0 | 2.0 | 0.00 | 0.01 | 0.00 | 77 | 1019.2 | |
| 20260901184518 | 54 | 0.0 | 5.0 | 0.00 | 0.01 | 0.00 | 77 | 1019.3 | |
| 20260901183517 | 55 | 0.0 | 3.0 | 0.00 | 0.01 | 0.00 | 77 | 1019.4 | |
| 20260901182518 | 55 | 0.0 | 6.0 | 0.00 | 0.01 | 0.00 | 77 | 1019.6 | |
| 20260901181518 | 55 | 270 | 1.0 | 8.0 | 0.00 | 0.01 | 0.00 | 77 | 1019.7 |
| 20260901180538 | 55 | 0.0 | 5.0 | 0.00 | 0.01 | 0.00 | 77 | 1019.8 | |
| 20260901175518 | 55 | 0.0 | 3.0 | 0.00 | 0.01 | 0.00 | 76 | 1019.9 | |
| 20260901174517 | 55 | 0.0 | 1.0 | 0.00 | 0.01 | 0.00 | 77 | 1019.9 | |
| 20260901173558 | 55 | 0.0 | 2.0 | 0.00 | 0.01 | 0.00 | 76 | 1019.8 | |
| 20260901172517 | 55 | 0.0 | 1.0 | 0.00 | 0.01 | 0.00 | 77 | 1019.9 | |
| 20260901171731 | 55 | 0.0 | 0.0 | 0.00 | 0.01 | 0.00 | 77 | 1020.0 | |
| 20260901170518 | 55 | 0.0 | 3.0 | 0.00 | 0.01 | 0.00 | 77 | 1020.2 | |
| 20260901165517 | 55 | 0.0 | 7.0 | 0.00 | 0.01 | 0.00 | 76 | 1020.2 | |
| 20260901164517 | 55 | 0.0 | 0.0 | 0.00 | 0.01 | 0.00 | 76 | 1020.3 | |
| 20260901163517 | 55 | 0.0 | 1.0 | 0.00 | 0.01 | 0.00 | 76 | 1020.2 | |
| 20260901162518 | 55 | 0.0 | 2.0 | 0.00 | 0.01 | 0.00 | 76 | 1020.3 | |
| 20260901161517 | 55 | 0.0 | 2.0 | 0.00 | 0.01 | 0.00 | 76 | 1020.3 | |
| 20260901160518 | 55 | 0.0 | 4.0 | 0.00 | 0.01 | 0.00 | 76 | 1020.4 | |
| 20260901155518 | 55 | 0.0 | 1.0 | 0.00 | 0.01 | 0.01 | 76 | 1020.6 | |
| 20260901154518 | 55 | 0.0 | 1.0 | 0.00 | 0.01 | 0.01 | 75 | 1020.7 | |
| 20260901153518 | 55 | 0.0 | 1.0 | 0.00 | 0.01 | 0.01 | 75 | 1020.8 | |
| 20260901152517 | 55 | 0.0 | 3.0 | 0.00 | 0.01 | 0.01 | 75 | 1020.9 | |
| 20260901151517 | 55 | 0.0 | 2.0 | 0.00 | 0.01 | 0.01 | 75 | 1021.1 | |
| 20260901150518 | 55 | 0.0 | 1.0 | 0.00 | 0.01 | 0.01 | 75 | 1021.0 | |
| 20260901145518 | 55 | 0.0 | 0.0 | 0.00 | 0.01 | 0.01 | 74 | 1021.1 | |
| 20260901144517 | 55 | 0.0 | 1.0 | 0.00 | 0.01 | 0.01 | 74 | 1021.0 | |
| 20260901143518 | 56 | 0.0 | 2.0 | 0.00 | 0.01 | 0.01 | 73 | 1021.2 | |
| 20260901142517 | 56 | 0.0 | 3.0 | 0.00 | 0.01 | 0.01 | 73 | 1021.3 | |
| 20260901141537 | 56 | 270 | 1.0 | 7.0 | 0.00 | 0.02 | 0.01 | 72 | 1021.4 |
| 20260901140517 | 56 | 0.0 | 4.0 | 0.00 | 0.02 | 0.01 | 72 | 1021.5 | |
| 20260901135518 | 56 | 248 | 1.0 | 8.0 | 0.00 | 0.02 | 0.01 | 72 | 1021.6 |
| 20260901134518 | 56 | 0.0 | 3.0 | 0.00 | 0.02 | 0.01 | 72 | 1021.7 | |
| 20260901133518 | 56 | 0.0 | 8.0 | 0.00 | 0.02 | 0.01 | 73 | 1021.9 | |
| 20260901132537 | 56 | 248 | 1.0 | 9.0 | 0.00 | 0.02 | 0.01 | 73 | 1022.0 |
| 20260901131517 | 55 | 0.0 | 2.0 | 0.00 | 0.03 | 0.01 | 74 | 1022.0 | |
| 20260901130518 | 55 | 0.0 | 1.0 | 0.00 | 0.03 | 0.01 | 74 | 1022.0 | |
| 20260901125538 | 55 | 0.0 | 6.0 | 0.00 | 0.04 | 0.01 | 75 | 1022.1 | |
| 20260901124517 | 55 | 0.0 | 1.0 | 0.00 | 0.04 | 0.01 | 75 | 1022.2 | |
| 20260901123558 | 55 | 0.0 | 1.0 | 0.00 | 0.04 | 0.01 | 75 | 1022.3 | |
| 20260901122518 | 55 | 0.0 | 1.0 | 0.00 | 0.04 | 0.01 | 75 | 1022.3 | |
| 20260901121517 | 55 | 0.0 | 3.0 | 0.00 | 0.04 | 0.01 | 75 | 1022.4 | |
| 20260901120517 | 55 | 0.0 | 2.0 | 0.00 | 0.04 | 0.01 | 74 | 1022.5 | |
| 20260901115517 | 55 | 0.0 | 4.0 | 0.00 | 0.04 | 0.01 | 74 | 1022.5 | |
| 20260901114517 | 56 | 0.0 | 1.0 | 0.00 | 0.04 | 0.01 | 73 | 1022.4 | |
| 20260901113517 | 56 | 248 | 1.0 | 5.0 | 0.00 | 0.04 | 0.01 | 73 | 1022.4 |
| 20260901112517 | 56 | 0.0 | 2.0 | 0.00 | 0.05 | 0.01 | 75 | 1022.3 | |
| 20260901111517 | 56 | 0.0 | 2.0 | 0.00 | 0.05 | 0.01 | 76 | 1022.2 | |
| 20260901110518 | 56 | 0.0 | 3.0 | 0.00 | 0.06 | 0.01 | 77 | 1022.2 | |
| 20260901105517 | 57 | 248 | 1.0 | 7.0 | 0.00 | 0.06 | 0.01 | 77 | 1022.2 |
| 20260901104518 | 57 | 248 | 1.0 | 6.0 | 0.00 | 0.08 | 0.01 | 76 | 1022.1 |
| 20260901103517 | 57 | 248 | 1.0 | 7.0 | 0.00 | 0.08 | 0.01 | 76 | 1022.2 |
| 20260901102517 | 57 | 248 | 1.0 | 8.0 | 0.00 | 0.09 | 0.01 | 75 | 1022.2 |
| 20260901101517 | 57 | 0.0 | 4.0 | 0.00 | 0.09 | 0.01 | 75 | 1022.2 | |
| 20260901100517 | 57 | 0.0 | 5.0 | 0.00 | 0.09 | 0.01 | 75 | 1022.2 | |
| 20260901095517 | 57 | 0.0 | 3.0 | 0.00 | 0.09 | 0.01 | 76 | 1022.1 | |
| 20260901094519 | 58 | 0.0 | 2.0 | 0.00 | 0.09 | 0.01 | 76 | 1022.1 | |
| 20260901093519 | 58 | 270 | 1.0 | 8.0 | 0.00 | 0.09 | 0.01 | 76 | 1022.1 |
| 20260901092519 | 58 | 225 | 1.0 | 7.0 | 0.00 | 0.10 | 0.01 | 76 | 1021.9 |
| 20260901091519 | 59 | 225 | 1.0 | 5.0 | 0.00 | 0.10 | 0.01 | 76 | 1021.8 |
| 20260901090519 | 59 | 248 | 1.0 | 8.0 | 0.00 | 0.10 | 0.01 | 74 | 1022.0 |
| 20260901085539 | 59 | 0.0 | 2.0 | 0.00 | 0.10 | 0.01 | 74 | 1021.9 | |
| 20260901084519 | 59 | 0.0 | 2.0 | 0.00 | 0.10 | 0.01 | 73 | 1022.0 | |
| 20260901083519 | 60 | 0.0 | 1.0 | 0.00 | 0.10 | 0.01 | 73 | 1021.9 | |
| 20260901082519 | 60 | 0.0 | 2.0 | 0.00 | 0.11 | 0.01 | 74 | 1022.0 | |
| 20260901081519 | 60 | 0.0 | 3.0 | 0.00 | 0.11 | 0.01 | 74 | 1022.0 | |
| 20260901080519 | 60 | 0.0 | 2.0 | 0.00 | 0.11 | 0.01 | 74 | 1022.0 | |
| 20260901075519 | 59 | 0.0 | 3.0 | 0.00 | 0.11 | 0.01 | 74 | 1022.0 | |
| 20260901074519 | 60 | 248 | 1.0 | 6.0 | 0.00 | 0.11 | 0.01 | 74 | 1022.1 |
| 20260901073539 | 60 | 248 | 1.0 | 6.0 | 0.00 | 0.11 | 0.01 | 73 | 1021.9 |
| 20260901072519 | 61 | 248 | 1.0 | 10.0 | 0.00 | 0.11 | 0.01 | 72 | 1021.8 |
| 20260901071519 | 61 | 225 | 1.0 | 6.0 | 0.00 | 0.11 | 0.01 | 73 | 1021.8 |
| 20260901070519 | 61 | 248 | 1.0 | 5.0 | 0.00 | 0.11 | 0.01 | 73 | 1021.8 |
| 20260901065519 | 60 | 225 | 1.0 | 10.0 | 0.00 | 0.11 | 0.01 | 73 | 1021.8 |
| 20260901064518 | 60 | 225 | 1.0 | 5.0 | 0.00 | 0.11 | 0.01 | 73 | 1021.9 |
| 20260901063559 | 61 | 248 | 2.0 | 9.0 | 0.00 | 0.11 | 0.01 | 69 | 1021.9 |
| 20260901062539 | 61 | 248 | 1.0 | 10.0 | 0.00 | 0.11 | 0.01 | 70 | 1021.9 |